Weather Roundup
Issued by NWS

Home | Current Version | Previous Version | Text Only | Print | Product List | Glossary On
Versions: 1 2 3 4 5 6 7 8 9 10 11 12 13 14 15 16 17 18 19 20 21 22 23 24 25 26 27 28 29 30 31 32 33 34 35 36 37 38 39 40 41 42 43 44 45 46 47 48 49 50
000
NZUS93 KARX 020659
HRRWXR

CURRENT HOURLY OBSERVATIONS ACROSS
MUCH OF THE UPPER MISSISSIPPI VALLEY
NATIONAL WEATHER SERVICE LA CROSSE WI
200 AM CDT TUE JUN 02 2020


...SOUTHEAST MINNESOTA...


CITY           SKY/WX    TMP DP  RH WIND       PRES   REMARKS
ROCHESTER      CLEAR     73  59  61 SW20      29.82S
ROCHESTER/MAYO FAIR      76  59  54 S16G24    29.82R
WINONA         CLEAR     77  63  61 SW10G18   29.79S
AUSTIN         CLEAR     75  64  69 SW10      29.84S
ALBERT LEA     CLEAR     75  63  64 SW10      29.83S
DODGE CENTER   CLEAR     73  59  60 SW13      29.82S
PRESTON        CLEAR     72  61  68 SW14G20   29.85S
OWATONNA       CLEAR     77  61  57 S14       29.80S
FARIBAULT      CLEAR     79  61  53 S9        29.79S
$$

...ELSEWHERE IN MINNESOTA...


CITY           SKY/WX    TMP DP  RH WIND       PRES   REMARKS
MINNEAPOLIS    CLEAR     78  64  61 CALM      29.74S
INTNL FALLS    CLEAR     66  52  60 W5        29.70R
DULUTH         CLEAR     56  52  86 SW3       29.73F
RED WING       CLEAR     79  61  53 W5        29.75S
REDWOOD FALLS  CLEAR     75  60  59 S5        29.76R
MANKATO        CLEAR     79  64  60 SW14      29.78S
WORTHINGTON    CLEAR     77  62  59 SW17      29.84R
FAIRMONT       CLEAR     75  62  64 SW13      29.82S
$$

...SOUTHWEST WISCONSIN...


CITY           SKY/WX    TMP DP  RH WIND       PRES   REMARKS
LA CROSSE      CLEAR     75  63  66 E6        29.81S
PRAIRIE DU CHI CLEAR     73  63  68 SW6       29.86F
BOSCOBEL       CLEAR     73  63  70 SW6       29.86F
LONE ROCK      NOT AVBL
PLATTEVILLE    CLEAR     71  65  82 SW13      29.91F
FORT MC COY    PTCLDY    73  64  73 S5        29.83F
CAMP DOUGLAS   PTCLDY    73  66  78 SW7       29.82F
MAUSTON-NEW LI MOSUNNY   73  65  74 SW12      29.82S
VIROQUA        FAIR      71  66  86 SW9       29.87S
WIS DELLS      PTCLDY    69  61  75 SW12G22   29.86F
$$

...ELSEWHERE IN WISCONSIN...


CITY           SKY/WX    TMP DP  RH WIND       PRES   REMARKS
MILWAUKEE      PTCLDY    72  57  59 SW17G28   29.87F
MADISON        MOCLDY    71  61  70 S9G18     29.87F
GREEN BAY      CLEAR     67  59  75 S7        29.80F
EAU CLAIRE     NOT AVBL
BLACK RVR FLS  FAIR      71  62  74 S3        29.80S
MEDFORD        MOCLDY    64  60  86 S5        29.81S
WAUSAU         MOCLDY    61  60  97 VRB3      29.79F
WIS RAPIDS       N/A    N/A N/A N/A MISG      29.82F
MARSHFIELD     MOCLDY    66  61  84 SW6       29.80F
RICE LAKE      CLEAR     65  64  97 CALM      29.78S
$$

...NORTHEAST IOWA...


CITY           SKY/WX    TMP DP  RH WIND       PRES   REMARKS
WATERLOO       CLEAR     76  62  62 SW15      29.87F
DUBUQUE        CLEAR     69  63  81 SW15      29.91F
DECORAH        CLEAR     73  66  78 SW9G18    29.85S
MASON CITY     CLEAR     75  62  64 SW20G25   29.86S
CHARLES CITY   CLEAR     73  63  68 SW13      29.87S
OELWEIN        CLEAR     72  66  83 SW10      29.90S
$$

...ELSEWHERE IN IOWA...


CITY           SKY/WX    TMP DP  RH WIND       PRES   REMARKS
DES MOINES     CLEAR     73  62  68 SW15      29.92S
IOWA CITY      CLEAR     71  62  73 S8        29.95S
FORT DODGE     CLEAR     75  63  66 SW15      29.88S
MARSHALLTOWN   CLEAR     72  63  73 SW13      29.90S
CEDAR RAPIDS   CLEAR     71  64  78 SW12      29.92S
$$

...NORTHERN ILLINOIS...


CITY           SKY/WX    TMP DP  RH WIND       PRES   REMARKS
CHICAGO-OHARE  PTCLDY    69  53  56 SW17      29.95F
CHICAGO-MIDWAY MOCLDY    68  52  56 SW14      29.97F
MOLINE         CLEAR     70  61  73 SW6       29.95F
ROCKFORD       CLEAR     70  57  63 SW12G22   29.95F
PEORIA         CLEAR     66  57  72 SW6       30.00F
$$

NOTE: "FAIR" INDICATES FEW OR NO CLOUDS BELOW 12,000 FEET WITH NO
SIGNIFICANT WEATHER AND/OR OBSTRUCTIONS TO VISIBILITY. WIND
SPEEDS ARE IN MILES-PER-HOUR.




USA.gov is the U.S. government's official web portal to all federal, state and local government web resources and services.